Wind_Speed
22 21 21 18 17 11 8 7 6 6 6 7 7 9 9 10 13 17 26 23 22 12 11 10 13 14 13 11 15 10 2 5 6 5 7 18 5 15 14 7 6 11 16 14 16
21 20 19 18 17 14 9 6 5 5 5 5 6 7 7 9 12 23 20 17 18 23 18 15 12 11 9 9 7 6 4 6 6 3 5 15 16 4 6 7 4 16 18 13 9
20 20 18 17 16 15 11 7 4 3 3 3 4 5 5 6 8 7 4 13 19 20 18 15 12 5 11 8 8 5 6 5 13 21 14 9 13 7 3 0 2 1 7 3 7
19 19 18 17 16 14 13 9 5 4 3 3 4 4 4 4 4 4 3 3 22 25 18 15 13 5 5 6 12 2 9 16 22 28 18 8 18 5 5 6 5 6 8 4 2
19 19 19 17 16 15 13 10 6 4 3 2 3 3 4 4 9 1 4 5 20 21 20 17 15 9 5 7 13 5 9 21 28 31 27 26 14 13 7 7 9 12 13 15 9
17 18 18 17 16 15 14 11 8 4 3 2 2 3 4 3 5 3 2 5 15 20 18 20 13 11 6 11 8 10 17 21 28 29 25 8 8 9 15 14 15 14 13 18 18
16 16 18 18 16 16 14 12 8 6 4 3 2 4 7 11 7 2 3 6 11 14 18 22 12 8 2 7 9 17 6 8 12 19 10 12 6 6 16 16 19 22 22 20 19
18 18 18 21 20 18 16 12 9 5 6 6 4 6 8 8 10 10 7 7 9 10 15 11 8 17 12 8 7 3 3 2 7 6 7 5 9 8 20 23 24 28 28 26 26
21 21 20 23 24 21 14 11 8 6 6 6 5 5 9 8 17 13 11 10 12 11 9 6 11 4 2 4 5 6 2 4 9 4 3 6 10 11 28 27 27 31 33 34 29
21 21 22 25 27 19 10 9 6 5 6 7 7 6 8 7 15 18 13 11 11 8 13 11 1 3 3 4 4 4 2 5 6 5 3 9 11 20 28 28 27 26 25 35 28
20 21 24 26 25 17 6 5 4 4 13 11 8 6 2 3 14 17 18 19 16 14 4 3 4 5 8 7 7 6 5 8 11 11 4 6 7 9 16 14 13 14 15 22 24
20 22 25 29 22 15 8 11 8 3 7 15 18 18 15 7 4 10 22 11 7 5 5 2 7 11 9 7 7 8 10 12 8 10 7 4 7 5 5 6 14 14 16 20 25
21 23 26 27 18 8 10 19 10 3 2 5 16 15 12 3 10 17 21 18 4 5 5 6 9 9 9 10 8 9 9 6 8 6 2 3 6 5 7 6 12 12 18 23 27
23 21 25 21 6 6 2 9 8 3 3 3 7 6 9 4 3 12 23 19 3 8 6 6 17 11 7 8 8 15 12 8 5 1 5 2 5 4 6 8 6 20 28 27 34
23 22 21 11 7 3 7 4 12 5 3 5 6 3 6 10 2 8 21 20 8 7 6 7 3 2 3 3 3 8 6 6 1 1 3 7 2 7 5 10 10 10 26 29 30
22 19 10 5 3 10 8 14 11 2 3 3 7 7 5 5 3 9 9 14 5 2 1 5 3 3 3 7 3 5 1 5 4 3 2 5 4 2 5 5 8 12 11 18 15
18 10 5 4 4 8 6 11 3 0 4 3 5 6 5 5 4 8 5 4 4 3 4 4 4 2 4 2 7 9 6 4 4 3 5 3 3 7 3 4 5 4 16 21 21
9 4 1 4 4 5 4 5 3 4 6 6 6 8 6 6 4 5 6 4 3 5 2 3 1 3 2 4 1 2 4 4 4 3 4 5 4 4 3 9 19 11 8 32 27
4 3 2 7 6 2 1 4 3 5 7 2 6 4 3 3 5 3 4 2 3 9 7 4 4 2 11 5 3 4 4 4 3 3 2 4 5 6 4 8 14 16 22 22 18
8 4 3 8 10 4 3 0 4 11 4 5 3 3 3 4 4 4 3 4 4 6 2 1 1 5 6 6 5 4 3 1 3 2 4 4 4 5 4 7 9 8 15 19 14
6 2 6 11 9 1 1 4 4 6 7 4 3 3 4 3 4 2 2 3 4 3 8 3 4 5 4 2 2 5 4 3 3 4 4 2 5 4 6 5 6 4 9 11 12
5 2 9 11 3 2 3 3 3 3 5 5 2 2 3 3 3 2 1 3 5 2 3 3 4 0 4 7 5 3 1 3 4 3 2 2 7 3 4 7 13 13 12 13 10
13 4 6 12 3 1 4 6 4 3 5 4 7 3 3 3 3 1 4 6 9 4 4 0 3 3 8 5 6 6 3 3 4 3 6 4 4 5 14 13 17 22 29 20 9
5 3 1 5 3 3 3 3 3 6 5 5 3 6 4 2 1 2 3 2 7 7 9 7 2 5 5 4 1 5 7 5 7 4 4 11 16 16 18 13 14 25 18 15 8
1 2 4 1 3 0 1 1 4 2 4 4 6 5 4 3 3 3 4 4 6 11 4 5 4 3 4 6 5 8 12 13 9 9 10 11 16 16 8 2 4 2 6 11 11
5 5 8 6 8 2 2 5 6 4 4 4 5 4 6 4 2 2 2 2 1 2 3 3 3 3 4 8 10 13 14 13 15 13 13 14 13 4 2 5 8 11 13 12 14
7 2 3 6 4 1 1 2 4 3 11 11 4 3 7 3 4 4 4 6 6 5 3 4 5 3 4 4 7 7 6 7 6 2 3 2 1 3 5 7 7 9 11 14 18
Wind_Direction
355 1 4 8 357 356 341 316 288 271 267 254 250 247 247 247 245 247 240 234 226 197 170 181 201 209 211 214 208 210 110 220 226 188 272 305 336 330 321 164 151 133 150 133 133
344 349 356 0 3 358 359 340 314 287 268 265 259 255 253 253 254 252 254 241 227 205 211 202 201 183 187 212 204 167 188 234 217 231 269 313 315 291 2 28 47 124 129 137 143
337 339 345 352 359 357 356 359 349 324 297 283 269 265 258 263 286 260 215 224 209 198 198 207 187 181 215 208 204 198 205 232 274 258 257 265 291 301 143 241 149 281 163 142 155
334 334 336 341 347 355 351 349 356 351 334 304 278 263 258 244 207 153 39 211 192 192 193 197 208 206 186 198 231 252 248 236 257 261 266 256 279 245 209 232 223 232 267 294 103
332 332 331 332 334 340 346 341 335 338 333 315 287 255 242 231 241 122 46 159 177 185 195 192 194 195 178 193 232 179 258 262 261 263 261 269 266 252 219 262 273 271 261 264 270
331 330 333 334 330 327 331 334 326 311 302 311 304 244 222 250 195 184 300 201 186 190 190 194 199 212 256 218 163 231 235 255 266 264 256 226 262 252 255 265 269 275 265 253 267
335 329 330 330 331 324 316 317 314 298 267 259 263 240 244 231 181 177 342 222 198 198 193 189 199 246 242 322 295 263 252 285 262 255 233 233 266 220 256 256 261 269 271 262 263
334 330 325 322 323 318 307 300 296 284 268 266 262 275 256 151 183 183 134 151 168 176 184 192 245 268 251 266 329 345 95 306 280 226 240 159 258 263 264 256 253 256 260 262 257
325 327 325 319 320 314 297 281 280 250 237 263 261 260 264 192 208 191 163 152 145 167 209 260 281 245 144 73 5 7 248 291 286 222 251 162 264 255 259 249 246 251 256 252 249
324 324 323 319 320 315 295 257 256 239 214 187 201 297 243 214 201 200 203 188 191 211 246 235 155 53 33 82 216 243 287 279 266 290 290 277 263 264 247 241 238 251 265 251 232
328 326 324 321 320 314 282 212 190 196 208 209 209 221 350 258 180 188 191 208 225 187 161 181 90 217 227 204 206 240 244 254 275 270 236 243 254 296 253 227 237 234 224 216 214
329 326 325 323 318 304 250 195 181 121 265 246 247 247 258 248 234 188 187 192 169 166 172 28 217 222 221 225 227 242 251 270 282 271 191 302 307 301 313 247 218 215 220 225 228
329 326 324 325 318 297 235 203 156 42 217 243 219 231 237 271 201 176 187 207 143 159 176 184 242 215 231 260 247 247 224 227 217 283 216 287 317 323 303 307 282 250 255 253 243
327 325 325 329 321 340 104 171 165 29 39 244 188 245 213 183 237 190 188 193 179 187 200 212 244 242 259 244 247 254 239 227 253 30 272 85 277 302 281 303 270 282 291 288 283
327 328 325 313 280 270 20 143 165 156 111 153 165 202 196 173 161 203 195 187 184 211 128 240 64 20 261 209 295 239 232 230 198 119 48 327 87 269 334 305 290 289 298 299 284
329 329 318 279 317 15 57 144 150 61 125 224 147 176 127 190 276 158 158 194 124 91 237 233 261 233 227 295 290 295 43 39 62 90 8 250 194 273 268 275 301 301 324 307 282
337 327 290 223 41 38 44 161 65 128 345 198 179 150 166 166 212 139 130 115 122 79 298 352 279 248 243 347 12 35 48 358 343 348 221 21 357 227 294 345 298 271 97 86 109
349 340 220 167 70 48 45 55 94 355 264 264 145 142 178 159 201 150 136 154 218 164 130 163 342 106 346 132 62 21 139 148 236 213 254 342 245 255 116 29 29 68 46 110 111
353 298 238 151 141 117 27 60 173 218 245 85 48 80 146 40 96 110 136 190 233 176 170 187 241 63 68 39 74 321 61 155 131 346 110 238 282 319 53 49 43 59 72 70 80
360 331 259 149 142 148 71 133 240 220 7 57 104 54 87 0 66 72 37 347 66 45 68 213 16 357 2 30 44 119 203 8 17 328 280 292 253 233 37 52 39 33 23 29 42
6 43 147 110 150 152 188 227 223 44 50 56 95 83 82 98 72 56 58 12 58 34 61 76 92 297 29 15 57 1 0 17 100 127 219 263 255 201 151 125 98 62 4 313 307
20 36 163 167 76 100 247 271 138 97 53 58 104 120 130 103 75 122 218 110 88 75 70 335 132 322 262 278 284 180 95 95 132 282 300 294 254 45 90 11 340 323 300 265 259
341 294 167 198 157 242 265 266 66 76 45 44 35 52 91 120 97 41 79 110 101 80 138 262 23 21 343 5 3 70 102 123 99 100 233 259 246 329 330 317 295 286 292 297 234
341 351 135 190 184 113 301 314 110 58 56 74 45 49 78 85 154 116 117 208 119 104 110 91 102 160 200 235 194 312 312 240 195 183 232 243 281 281 280 292 251 276 282 276 274
323 313 9 329 340 11 110 288 136 108 96 70 18 74 121 83 28 75 32 44 66 139 86 106 184 196 252 273 294 287 273 274 252 232 230 265 257 271 287 317 22 68 10 62 46
27 20 345 299 292 11 10 24 91 59 55 65 95 53 66 87 87 125 58 81 200 229 109 19 209 163 258 245 258 275 281 277 265 261 259 262 266 333 211 65 33 38 53 34 11
23 350 331 306 325 47 219 47 56 91 47 71 111 91 76 34 358 302 249 218 209 149 131 143 138 115 262 346 321 283 239 257 234 135 213 219 212 309 2 349 7 52 28 1 345
Height
1505 1501 1497 1493 1490 1486 1483 1482 1482 1482 1482 1482 1482 1482 1483 1483 1483 1482 1479 1484 1489 1493 1494 1497 1499 1501 1504 1506 1507 1509 1518 1521 1510 1507 1498 1493 1496 1491 1486 1484 1484 1485 1489 1493 1496
1504 1500 1496 1493 1489 1486 1483 1481 1480 1480 1480 1480 1479 1479 1479 1480 1479 1476 1478 1481 1485 1489 1491 1494 1496 1498 1501 1502 1504 1505 1514 1508 1497 1496 1496 1493 1492 1492 1490 1490 1487 1488 1490 1492 1494
1503 1499 1496 1492 1489 1486 1483 1481 1480 1479 1478 1477 1477 1477 1478 1478 1477 1473 1473 1475 1479 1484 1489 1492 1496 1498 1499 1498 1499 1499 1505 1498 1492 1493 1497 1498 1494 1491 1491 1491 1490 1488 1491 1492 1492
1500 1497 1494 1491 1488 1485 1483 1480 1478 1478 1477 1476 1476 1476 1476 1476 1477 1471 1472 1470 1475 1481 1486 1488 1493 1496 1496 1497 1495 1499 1494 1494 1491 1492 1494 1493 1491 1490 1489 1488 1489 1488 1488 1488 1490
1497 1495 1492 1489 1487 1484 1481 1480 1478 1476 1475 1475 1475 1474 1475 1476 1471 1470 1470 1470 1474 1478 1481 1484 1490 1492 1493 1492 1493 1496 1492 1490 1487 1486 1487 1488 1487 1485 1485 1486 1485 1485 1485 1485 1488
1495 1491 1490 1487 1484 1482 1480 1478 1476 1475 1475 1474 1473 1473 1475 1476 1468 1469 1469 1471 1473 1476 1479 1482 1485 1489 1488 1487 1492 1486 1487 1487 1484 1483 1483 1485 1483 1483 1480 1482 1482 1482 1482 1483 1484
1492 1489 1487 1484 1481 1479 1477 1475 1474 1473 1473 1473 1473 1472 1472 1467 1466 1468 1469 1470 1472 1473 1477 1481 1484 1487 1486 1485 1485 1484 1488 1484 1481 1479 1480 1480 1482 1480 1478 1478 1477 1477 1478 1479 1480
1489 1486 1483 1481 1478 1475 1474 1473 1472 1472 1471 1471 1470 1470 1464 1463 1465 1466 1468 1470 1471 1474 1478 1482 1484 1485 1485 1483 1483 1484 1486 1493 1479 1474 1474 1477 1486 1474 1474 1474 1474 1474 1474 1475 1476
1486 1483 1480 1477 1474 1471 1469 1469 1469 1469 1469 1470 1471 1471 1462 1461 1461 1464 1467 1468 1471 1474 1477 1479 1482 1481 1480 1485 1495 1492 1498 1491 1482 1472 1475 1477 1482 1468 1469 1469 1469 1469 1469 1470 1472
1482 1479 1476 1472 1468 1465 1465 1465 1467 1467 1468 1469 1470 1472 1460 1456 1458 1461 1465 1468 1471 1473 1476 1479 1479 1482 1485 1493 1509 1497 1495 1489 1487 1474 1473 1477 1478 1466 1462 1463 1462 1464 1464 1463 1466
1478 1475 1472 1468 1463 1460 1461 1463 1468 1468 1465 1458 1457 1454 1456 1456 1457 1460 1464 1467 1470 1472 1477 1476 1485 1491 1484 1484 1484 1485 1489 1492 1480 1471 1474 1476 1475 1465 1457 1458 1460 1461 1458 1460 1462
1474 1471 1467 1463 1458 1455 1456 1457 1457 1460 1457 1454 1454 1455 1454 1456 1459 1458 1462 1467 1470 1475 1476 1481 1487 1477 1476 1478 1481 1484 1489 1489 1480 1469 1472 1469 1468 1462 1458 1457 1456 1456 1457 1459 1460
1470 1467 1463 1458 1454 1451 1451 1452 1455 1455 1455 1450 1448 1450 1451 1454 1454 1455 1459 1463 1466 1472 1474 1482 1473 1470 1474 1476 1480 1480 1484 1482 1480 1467 1465 1465 1472 1465 1458 1455 1454 1453 1454 1453 1454
1466 1463 1459 1454 1454 1450 1449 1451 1454 1456 1461 1448 1447 1447 1449 1450 1451 1453 1456 1461 1464 1470 1472 1477 1467 1470 1473 1475 1473 1480 1464 1465 1467 1473 1490 1466 1497 1470 1460 1458 1454 1451 1449 1449 1449
1462 1458 1455 1453 1451 1449 1452 1451 1454 1457 1471 1447 1445 1444 1445 1448 1449 1449 1453 1458 1463 1465 1470 1473 1467 1468 1471 1467 1465 1468 1457 1460 1462 1472 1478 1479 1491 1476 1461 1461 1454 1447 1445 1442 1439
1457 1454 1452 1452 1450 1449 1449 1451 1456 1464 1465 1445 1442 1443 1447 1447 1447 1447 1451 1456 1459 1462 1463 1465 1463 1464 1463 1460 1459 1457 1460 1465 1471 1481 1498 1481 1484 1478 1469 1460 1453 1444 1441 1437 1432
1452 1451 1450 1451 1451 1449 1450 1453 1464 1466 1450 1444 1443 1443 1446 1448 1448 1447 1452 1458 1466 1476 1475 1466 1463 1459 1458 1462 1462 1464 1475 1495 1498 1499 1501 1476 1482 1479 1457 1455 1453 1448 1441 1438 1440
1450 1450 1449 1450 1450 1450 1450 1454 1465 1457 1450 1437 1436 1441 1448 1446 1448 1449 1455 1463 1460 1465 1474 1478 1478 1461 1460 1465 1469 1468 1476 1499 1501 1506 1495 1478 1487 1471 1458 1456 1452 1451 1451 1441 1447
1448 1449 1448 1449 1450 1451 1453 1462 1463 1459 1442 1436 1437 1443 1444 1444 1447 1450 1457 1461 1459 1459 1475 1476 1472 1461 1462 1463 1464 1470 1481 1479 1492 1497 1503 1491 1473 1462 1456 1457 1455 1456 1455 1452 1453
1448 1447 1447 1448 1450 1452 1455 1456 1450 1443 1436 1438 1449 1448 1456 1454 1454 1456 1458 1459 1460 1459 1458 1469 1477 1466 1463 1461 1464 1469 1470 1487 1500 1507 1503 1492 1480 1474 1464 1466 1461 1459 1458 1456 1455
1448 1446 1447 1448 1451 1453 1458 1452 1445 1439 1438 1441 1447 1450 1453 1457 1456 1461 1461 1461 1460 1461 1460 1465 1477 1479 1470 1472 1476 1480 1483 1480 1484 1492 1503 1504 1487 1462 1466 1466 1466 1462 1459 1457 1457
1448 1448 1447 1449 1452 1453 1456 1446 1441 1441 1440 1442 1443 1446 1452 1454 1458 1460 1461 1460 1460 1461 1470 1472 1481 1486 1480 1471 1471 1474 1479 1485 1500 1498 1494 1493 1480 1464 1466 1464 1463 1461 1459 1457 1455
1451 1448 1448 1449 1454 1453 1449 1444 1441 1442 1444 1445 1448 1447 1449 1457 1465 1460 1459 1461 1461 1465 1470 1473 1487 1498 1489 1481 1475 1480 1481 1485 1491 1498 1497 1495 1481 1460 1464 1463 1462 1459 1455 1455 1453
1453 1452 1447 1448 1447 1446 1448 1445 1444 1444 1445 1447 1450 1450 1454 1458 1458 1463 1461 1462 1462 1466 1469 1472 1485 1491 1501 1488 1490 1488 1483 1482 1486 1498 1492 1483 1477 1470 1464 1461 1458 1455 1453 1450 1452
1454 1453 1452 1452 1448 1447 1447 1446 1446 1449 1447 1449 1452 1454 1457 1466 1465 1466 1467 1468 1468 1470 1472 1477 1490 1488 1488 1486 1484 1484 1482 1479 1482 1482 1486 1472 1470 1462 1460 1457 1453 1453 1452 1448 1449
1455 1456 1453 1451 1448 1447 1447 1446 1448 1450 1451 1456 1460 1459 1459 1465 1467 1470 1470 1470 1472 1473 1476 1480 1491 1487 1489 1482 1481 1480 1474 1471 1468 1466 1465 1464 1463 1458 1457 1455 1453 1453 1452 1450 1449
1457 1456 1456 1452 1449 1449 1449 1448 1451 1450 1458 1457 1459 1460 1466 1468 1466 1466 1467 1468 1469 1473 1478 1482 1489 1493 1489 1483 1482 1482 1469 1462 1459 1463 1463 1464 1463 1461 1459 1457 1455 1453 1451 1450 1447